Вернуться в каталог

STARLINK-5483

АктивенСвязьVLEO
NORAD 55643·PAYLOAD·🇺🇸 United States

Запущен Feb 17, 2023 с Vandenberg Space Force Base

Loading…

Ближайшие Пролёты (ближайшие 24 часа)

TLE

СвежийSource: CelesTrak SupGP

Эпоха: Sep 15, 2026, 01:53 UTC

1 55643C 23021R   26258.07895833 -.00053666  00000+0 -44982-2 0  2581
2 55643  70.0006  67.1181 0002889 270.1754 154.8134 14.98351090    12

Отслеживайте STARLINK-5483 в реальном времени с AllMySat

Download on the App Store